Tracking 29493 objects as of 8-Sep-2024
HD Live streaming from Space Station
objects crossing your sky now

FENGYUN 1C DEB

Track FENGYUN 1C DEB now!
10-day predictions


NORAD ID: 31024
Int'l Code: 1999-025BDS
Perigee: 778.6 km
Apogee: 888.5 km
Inclination: 99.1 °
Period: 101.4 minutes
Semi major axis: 7204 km
RCS: 0.01 m2 (small)
Launch date: May 10, 1999
Source: People's Republic of China (PRC)
Launch site: Taiyaun Space Center, China (TSC)

Note: This is SATELLITE DEBRIS
Your satellite tracking list
Your tracking list is empty




NASA's NSSDC Master Catalog

Two Line Element Set (TLE):
1 31024U 99025BDS 24251.50404472  .00003282  00000-0  15288-2 0  9996
2 31024  99.0598 148.2002 0076249   2.2677 357.8830 14.19681026901564
Source of the keplerian elements: AFSPC